Location: Austin
(30.3000°N, 97.7500°W)
Time: 02:18:32
(UTC-05:00)

MOS 1 - Pass Details

Date: 15 May 2024
Orbit: 877 x 891 km, 98.9° (Epoch: 29 May)

Event Time Altitude Azimuth Distance (km) Brightness Sun altitude
Exits shadow 22:17:14 45° 158° (SSE) 1,194 4.5 -22.6°
Maximum altitude 22:19:06 83° 76° (ENE) 897 4.2 -22.9°
Drops below altitude 10° 22:24:47 10° 349° (N) 2,549 7.4 -23.8°
Sets 22:27:11 0° 349° (NNW) 3,489 8.2 -24.2°
